Time,TemperatureF,DewpointF,PressureIn,WindDirection,WindDirectionDegrees,WindSpeedMPH,WindSpeedGustMPH,Humidity,HourlyPrecipIn,Conditions,Clouds,dailyrainin,SoftwareType,DateUTC
2017-07-26 00:02:00,77.4,-99.9,30.12,WSW,248,0.0,0.0,93,0.00,,---,0.00,VWS V15.00,2017-07-26 04:02:00,
2017-07-26 00:07:00,77.4,-99.9,30.12,WSW,248,0.0,0.0,93,0.00,,---,0.00,VWS V15.00,2017-07-26 04:07:00,
2017-07-26 00:12:00,77.2,-99.9,30.12,WSW,248,0.0,0.0,93,0.00,,---,0.00,VWS V15.00,2017-07-26 04:12:00,
2017-07-26 00:17:00,77.2,-99.9,30.12,WSW,248,0.0,0.0,93,0.00,,---,0.00,VWS V15.00,2017-07-26 04:17:00,
2017-07-26 00:22:00,77.2,-99.9,30.12,WSW,248,0.0,0.0,93,0.00,,---,0.00,VWS V15.00,2017-07-26 04:22:00,
2017-07-26 00:27:00,77.2,-99.9,30.12,WSW,248,0.0,0.0,93,0.00,,---,0.00,VWS V15.00,2017-07-26 04:27:00,
2017-07-26 00:32:00,77.0,-99.9,30.12,WSW,248,0.0,0.0,93,0.00,,---,0.00,VWS V15.00,2017-07-26 04:32:00,
2017-07-26 00:37:00,77.0,-99.9,30.12,SW,225,3.4,3.4,93,0.00,,---,0.00,VWS V15.00,2017-07-26 04:37:00,
2017-07-26 00:42:00,77.0,-99.9,30.12,SSE,158,0.0,2.7,93,0.00,,---,0.00,VWS V15.00,2017-07-26 04:42:00,
2017-07-26 00:47:00,77.0,-99.9,30.12,SE,135,0.0,0.0,93,0.00,,---,0.00,VWS V15.00,2017-07-26 04:47:00,
2017-07-26 00:52:00,77.4,-99.9,30.12,South,180,2.9,2.9,93,0.00,,---,0.00,VWS V15.00,2017-07-26 04:52:00,
2017-07-26 00:57:00,77.5,-99.9,30.12,SSE,158,1.6,1.6,93,0.00,,---,0.00,VWS V15.00,2017-07-26 04:57:00,
2017-07-26 01:02:00,77.5,-99.9,30.12,SSE,158,0.0,1.6,93,0.00,,---,0.00,VWS V15.00,2017-07-26 05:02:00,
2017-07-26 01:07:00,77.5,-99.9,30.12,SSE,158,0.0,0.0,93,0.00,,---,0.00,VWS V15.00,2017-07-26 05:07:00,
2017-07-26 01:12:00,77.5,-99.9,30.09,SE,135,2.0,2.0,93,0.00,,---,0.00,VWS V15.00,2017-07-26 05:12:00,
2017-07-26 01:17:00,77.7,-99.9,30.09,SE,135,1.3,2.0,93,0.00,,---,0.00,VWS V15.00,2017-07-26 05:17:00,
2017-07-26 01:22:00,77.7,-99.9,30.09,SSE,158,1.8,1.8,93,0.00,,---,0.00,VWS V15.00,2017-07-26 05:22:00,
2017-07-26 01:27:00,77.9,-99.9,30.09,SSE,158,1.1,1.1,93,0.00,,---,0.00,VWS V15.00,2017-07-26 05:27:00,
2017-07-26 01:32:00,77.9,-99.9,30.09,South,180,2.5,3.1,93,0.00,,---,0.00,VWS V15.00,2017-07-26 05:32:00,
2017-07-26 01:37:00,77.9,-99.9,30.09,SW,225,2.0,2.5,93,0.00,,---,0.00,VWS V15.00,2017-07-26 05:37:00,
2017-07-26 01:42:00,78.1,-99.9,30.09,SSE,158,0.0,1.3,93,0.00,,---,0.00,VWS V15.00,2017-07-26 05:42:00,
2017-07-26 01:47:00,78.3,-99.9,30.09,South,180,0.0,1.1,92,0.00,,---,0.00,VWS V15.00,2017-07-26 05:47:00,
2017-07-26 01:52:00,78.3,-99.9,30.09,South,180,2.7,2.9,92,0.00,,---,0.00,VWS V15.00,2017-07-26 05:52:00,
2017-07-26 01:57:00,78.4,-99.9,30.09,SSE,158,3.4,3.4,92,0.00,,---,0.00,VWS V15.00,2017-07-26 05:57:00,
2017-07-26 02:02:00,78.4,-99.9,30.09,SSE,158,1.1,2.0,92,0.00,,---,0.00,VWS V15.00,2017-07-26 06:02:00,
2017-07-26 02:07:00,78.6,-99.9,30.09,South,180,3.1,3.1,92,0.00,,---,0.00,VWS V15.00,2017-07-26 06:07:00,
2017-07-26 02:12:00,78.6,-99.9,30.09,South,180,3.4,3.4,92,0.00,,---,0.00,VWS V15.00,2017-07-26 06:12:00,
2017-07-26 02:17:00,78.6,-99.9,30.09,SSE,158,1.6,1.6,92,0.00,,---,0.00,VWS V15.00,2017-07-26 06:17:00,
2017-07-26 02:22:00,78.6,-99.9,30.09,SSW,202,1.1,1.1,92,0.00,,---,0.00,VWS V15.00,2017-07-26 06:22:00,
2017-07-26 02:27:00,78.6,-99.9,30.09,SSE,158,1.6,2.5,92,0.00,,---,0.00,VWS V15.00,2017-07-26 06:27:00,
2017-07-26 02:32:00,78.6,-99.9,30.09,SW,225,3.1,3.1,92,0.00,,---,0.00,VWS V15.00,2017-07-26 06:32:00,
2017-07-26 02:37:00,78.6,-99.9,30.09,South,180,0.0,0.0,92,0.00,,---,0.00,VWS V15.00,2017-07-26 06:37:00,
2017-07-26 02:42:00,78.6,-99.9,30.09,South,180,0.0,0.0,92,0.00,,---,0.00,VWS V15.00,2017-07-26 06:42:00,
2017-07-26 02:47:00,78.6,-99.9,30.09,South,180,2.0,2.0,92,0.00,,---,0.00,VWS V15.00,2017-07-26 06:47:00,
2017-07-26 02:52:00,78.4,-99.9,30.09,SSE,158,2.7,2.7,92,0.00,,---,0.00,VWS V15.00,2017-07-26 06:52:00,